Home   Weather   Bilbao   Past weeks

Flag for Spain Past Weather in Bilbao, Spain — Yesterday and Last 2 Weeks

Now
37 °F

Partly cloudy.


Feels Like: 37 °F
Forecast: 28 / 44 °F
Wind: 2 mph from North

Location: Bilbao / Sondica

Current Time: Jan 18, 2017 at 7:17:03 pm

Latest Report: Jan 18, 2017 at 6:30 pm


Visibility: N/A

Pressure: 30.30 "Hg

Humidity: 81%

Dew Point: 32 °F

Location of BilbaoLocation

Past Weather in Bilbao — Graph

°F

Bilbao Temperature Yesterday

Maximum temperature yesterday: 52 °F (at 12:00 am)
Minimum temperature yesterday: 37 °F (at 9:30 am)
Average temperature yesterday: 44 °F

High & Low Weather Summary for the Past Weeks

 TemperatureHumidityPressure
High57 °F (Jan 9, 2:00 pm)100% (Jan 3, 11:30 pm)30.57 "Hg (Jan 3, 11:30 pm)
Low27 °F (Jan 7, 8:30 am)40% (Jan 8, 2:30 pm)30.07 "Hg (Jan 12, 3:30 pm)
Average45 °F85%30.36 "Hg
* Reported Jan 3 6:00 pm — Jan 18 6:00 pm, Bilbao, Weather by CustomWeather, © 2017

Note: Actual official high and low records may vary slightly from our data, if they occured in-between our weather recording intervals... More about our weather records

Advertising

Bilbao Weather History for the Previous 24 Hours

Scroll right to see more
 ConditionsComfort  
Time TempWeatherWind HumidityBarometerVisibility
6:00 pm
Wed, Jan 18
37 °FBroken clouds.2 mph81%30.30 "HgN/A
5:30 pm37 °FBroken clouds.1 mph75%30.30 "HgN/A
5:00 pm37 °FPartly sunny.2 mph75%30.30 "HgN/A
4:30 pm37 °FMore clouds than sun.5 mph75%30.30 "HgN/A
4:00 pm37 °FMore clouds than sun.6 mph75%30.30 "HgN/A
3:30 pm37 °FMore clouds than sun.7 mph75%30.30 "HgN/A
3:00 pm37 °FMostly cloudy.5 mph75%30.30 "HgN/A
2:30 pm37 °FMostly cloudy.5 mph75%30.30 "HgN/A
2:00 pm37 °FMostly cloudy.5 mph75%30.30 "HgN/A
1:30 pm37 °FMostly cloudy.2 mph75%30.30 "HgN/A
1:00 pm37 °FMostly cloudy.2 mph75%30.33 "HgN/A
12:30 pm37 °FMostly cloudy.3 mph70%30.33 "HgN/A
12:00 pm37 °FMostly cloudy.2 mph70%30.33 "HgN/A
11:30 am37 °FMostly cloudy.6 mph70%30.33 "HgN/A
11:00 am37 °FMostly cloudy.5 mph70%30.33 "HgN/A
10:30 am36 °FPartly sunny.2 mph75%30.36 "HgN/A
10:00 am36 °FPartly sunny.No wind75%30.33 "HgN/A
9:30 am34 °FPartly sunny.1 mph87%30.36 "HgN/A
9:00 am32 °FPartly sunny.No wind93%30.33 "HgN/A
8:30 am30 °FPassing clouds.No wind93%30.33 "HgN/A
8:00 am30 °FPassing clouds.No wind93%30.33 "HgN/A
7:30 am30 °FPartly cloudy.2 mph93%30.33 "HgN/A
7:00 am30 °FPassing clouds.1 mph93%30.33 "HgN/A
6:30 am32 °FPartly cloudy.1 mph87%30.33 "HgN/A
6:00 am32 °FPartly cloudy.2 mph87%30.33 "HgN/A
5:30 am34 °FPartly cloudy.3 mph87%30.33 "HgN/A
5:00 am32 °FPartly cloudy.2 mph87%30.33 "HgN/A
4:30 am34 °FPassing clouds.3 mph81%30.33 "HgN/A
4:00 am34 °FChilly.No wind81%30.33 "HgN/A
3:30 am36 °FChilly.3 mph75%30.36 "HgN/A
3:00 am37 °FPassing clouds.6 mph70%30.33 "HgN/A
2:30 am39 °FPartly cloudy.7 mph65%30.33 "HgN/A
2:00 am41 °FPartly cloudy.6 mph53%30.33 "HgN/A
1:30 am41 °FPassing clouds.3 mph53%30.33 "HgN/A
1:00 am41 °FPassing clouds.5 mph53%30.36 "HgN/A
12:30 am41 °FPassing clouds.5 mph53%30.36 "HgN/A
12:00 am41 °FPassing clouds.3 mph53%30.36 "HgN/A
11:30 pm
Tue, Jan 17
41 °FPassing clouds.6 mph49%30.36 "HgN/A
11:00 pm43 °FPassing clouds.9 mph49%30.36 "HgN/A
10:30 pm43 °FPassing clouds.8 mph49%30.36 "HgN/A
10:00 pm43 °FPassing clouds.7 mph46%30.36 "HgN/A
9:30 pm43 °FPassing clouds.8 mph46%30.36 "HgN/A
9:00 pm43 °FPassing clouds.7 mph53%30.36 "HgN/A
8:30 pm43 °FPassing clouds.6 mph53%30.36 "HgN/A
8:00 pm41 °FPassing clouds.5 mph57%30.36 "HgN/A
7:30 pm39 °FPassing clouds.5 mph61%30.39 "HgN/A
7:00 pm41 °FPassing clouds.5 mph57%30.39 "HgN/A
Weather by CustomWeather, © 2017

See weather overviewHow to use our weather pages